| time (UTC) | temp C | wind direction | speed KPH | gust KPH | rain 1hr cm | rain 24hr cm | rain mn cm | humidity % | barometer mb |
| 20260506171550 | 16 | 0 | 0.0 | 9.7 | 0.08 | 0.13 | 0.13 | 86 | 1005.9 |
| 20260506171027 | 16 | 159 | 4.8 | 9.7 | 0.08 | 0.13 | 0.13 | 86 | 1006.0 |
| 20260506170527 | 16 | 174 | 4.8 | 9.7 | 0.08 | 0.13 | 0.13 | 86 | 1006.1 |
| 20260506170040 | 16 | 0 | 0.0 | 8.0 | 0.05 | 0.10 | 0.10 | 86 | 1006.4 |
| 20260506165531 | 16 | 161 | 0.0 | 8.0 | 0.05 | 0.10 | 0.10 | 86 | 1006.4 |
| 20260506165030 | 16 | 0 | 0.0 | 9.7 | 0.05 | 0.10 | 0.10 | 85 | 1006.5 |
| 20260506164539 | 16 | 161 | 1.6 | 9.7 | 0.08 | 0.10 | 0.10 | 85 | 1006.6 |
| 20260506164028 | 16 | 183 | 1.6 | 4.8 | 0.05 | 0.08 | 0.08 | 85 | 1007.0 |
| 20260506163530 | 17 | 183 | 1.6 | 4.8 | 0.05 | 0.08 | 0.08 | 85 | 1007.1 |
| 20260506163058 | 17 | 0 | 0.0 | 0.0 | 0.08 | 0.08 | 0.08 | 84 | 1007.2 |
| 20260506162527 | 17 | 0 | 0.0 | 0.0 | 0.08 | 0.08 | 0.08 | 85 | 1007.2 |
| 20260506162028 | 17 | 0 | 0.0 | 0.0 | 0.05 | 0.05 | 0.05 | 84 | 1007.3 |
| 20260506161541 | 17 | 0 | 0.0 | 0.0 | 0.05 | 0.05 | 0.05 | 83 | 1007.3 |
| 20260506161032 | 17 | 0 | 0.0 | 0.0 | 0.05 | 0.05 | 0.05 | 83 | 1007.5 |
| 20260506160532 | 17 | 0 | 0.0 | 0.0 | 0.05 | 0.05 | 0.05 | 83 | 1007.5 |
| 20260506160043 | 17 | 0 | 0.0 | 3.2 | 0.05 | 0.05 | 0.05 | 83 | 1007.4 |
| 20260506155527 | 17 | 0 | 0.0 | 3.2 | 0.05 | 0.05 | 0.05 | 82 | 1007.3 |
| 20260506155028 | 17 | 153 | 0.0 | 3.2 | 0.05 | 0.05 | 0.05 | 81 | 1007.3 |
| 20260506154546 | 17 | 0 | 0.0 | 3.2 | 0.03 | 0.03 | 0.03 | 82 | 1007.3 |
| 20260506154029 | 18 | 0 | 0.0 | 3.2 | 0.03 | 0.03 | 0.03 | 81 | 1007.3 |
| 20260506153526 | 18 | 0 | 0.0 | 3.2 | 0.03 | 0.03 | 0.03 | 80 | 1007.4 |
| 20260506153039 | 18 | 0 | 0.0 | 0.0 | 0.00 | 0.00 | 0.00 | 80 | 1007.4 |
| 20260506152530 | 18 | 0 | 0.0 | 1.6 | 0.00 | 0.00 | 0.00 | 79 | 1007.5 |
| 20260506152029 | 18 | 0 | 0.0 | 1.6 | 0.00 | 0.00 | 0.00 | 78 | 1007.4 |
| 20260506151534 | 18 | 0 | 0.0 | 1.6 | 0.00 | 0.00 | 0.00 | 78 | 1007.4 |
| 20260506151026 | 18 | 0 | 0.0 | 0.0 | 0.00 | 0.00 | 0.00 | 76 | 1007.4 |
| 20260506150526 | 18 | 0 | 0.0 | 9.7 | 0.00 | 0.00 | 0.00 | 77 | 1007.4 |
| 20260506150043 | 18 | 0 | 0.0 | 9.7 | 0.00 | 0.00 | 0.00 | 75 | 1007.4 |
| 20260506145526 | 18 | 0 | 1.6 | 8.0 | 0.00 | 0.00 | 0.00 | 74 | 1007.4 |
| 20260506145029 | 18 | 0 | 0.0 | 0.0 | 0.00 | 0.00 | 0.00 | 74 | 1007.4 |
| 20260506144539 | 19 | 0 | 0.0 | 1.6 | 0.00 | 0.00 | 0.00 | 75 | 1007.5 |
| 20260506144026 | 19 | 0 | 0.0 | 12.9 | 0.00 | 0.00 | 0.00 | 74 | 1007.5 |
| 20260506143528 | 19 | 0 | 3.2 | 12.9 | 0.00 | 0.00 | 0.00 | 73 | 1007.6 |
| 20260506143036 | 19 | 195 | 1.6 | 6.4 | 0.00 | 0.00 | 0.00 | 73 | 1007.7 |
| 20260506142526 | 18 | 0 | 0.0 | 6.4 | 0.00 | 0.00 | 0.00 | 73 | 1007.7 |
| 20260506142026 | 18 | 178 | 1.6 | 8.0 | 0.00 | 0.00 | 0.00 | 73 | 1007.8 |
| 20260506141537 | 18 | 174 | 1.6 | 8.0 | 0.00 | 0.00 | 0.00 | 72 | 1007.8 |
| 20260506141032 | 18 | 0 | 0.0 | 6.4 | 0.00 | 0.00 | 0.00 | 73 | 1007.9 |
| 20260506140530 | 18 | 0 | 0.0 | 8.0 | 0.00 | 0.00 | 0.00 | 73 | 1007.8 |
| 20260506140042 | 18 | 165 | 1.6 | 8.0 | 0.00 | 0.00 | 0.00 | 73 | 1007.8 |
| 20260506135529 | 18 | 0 | 0.0 | 14.5 | 0.00 | 0.00 | 0.00 | 73 | 1007.7 |
| 20260506135031 | 18 | 201 | 3.2 | 16.1 | 0.00 | 0.00 | 0.00 | 73 | 1007.7 |
| 20260506134543 | 18 | 168 | 6.4 | 17.7 | 0.00 | 0.00 | 0.00 | 73 | 1007.6 |
| 20260506134031 | 18 | 165 | 6.4 | 17.7 | 0.00 | 0.00 | 0.00 | 73 | 1007.7 |
| 20260506133528 | 18 | 157 | 1.6 | 9.7 | 0.00 | 0.00 | 0.00 | 73 | 1007.6 |
| 20260506133037 | 18 | 196 | 1.6 | 12.9 | 0.00 | 0.00 | 0.00 | 73 | 1007.5 |
| 20260506132529 | 18 | 161 | 3.2 | 14.5 | 0.00 | 0.00 | 0.00 | 73 | 1007.5 |
| 20260506132029 | 18 | 163 | 3.2 | 14.5 | 0.00 | 0.00 | 0.00 | 74 | 1007.3 |
| 20260506131536 | 18 | 0 | 1.6 | 11.3 | 0.00 | 0.00 | 0.00 | 74 | 1007.3 |
| 20260506131029 | 18 | 0 | 0.0 | 9.7 | 0.00 | 0.00 | 0.00 | 74 | 1007.2 |
| 20260506130529 | 18 | 0 | 3.2 | 9.7 | 0.00 | 0.00 | 0.00 | 74 | 1007.2 |
| 20260506130036 | 18 | 172 | 1.6 | 9.7 | 0.00 | 0.00 | 0.00 | 74 | 1007.3 |
| 20260506125528 | 18 | 0 | 0.0 | 9.7 | 0.00 | 0.00 | 0.00 | 74 | 1007.6 |
| 20260506125028 | 18 | 211 | 3.2 | 9.7 | 0.00 | 0.00 | 0.00 | 74 | 1007.4 |
| 20260506124538 | 18 | 152 | 1.6 | 11.3 | 0.00 | 0.00 | 0.00 | 74 | 1007.5 |
| 20260506124028 | 18 | 167 | 3.2 | 11.3 | 0.00 | 0.00 | 0.00 | 74 | 1007.7 |
| 20260506123528 | 17 | 171 | 3.2 | 8.0 | 0.00 | 0.00 | 0.00 | 74 | 1007.6 |
| 20260506123035 | 17 | 170 | 0.0 | 12.9 | 0.00 | 0.00 | 0.00 | 74 | 1007.6 |
| 20260506122527 | 17 | 0 | 3.2 | 14.5 | 0.00 | 0.00 | 0.00 | 74 | 1007.6 |
| 20260506122030 | 17 | 171 | 4.8 | 14.5 | 0.00 | 0.00 | 0.00 | 74 | 1007.8 |
| 20260506121539 | 17 | 146 | 3.2 | 9.7 | 0.00 | 0.00 | 0.00 | 75 | 1007.7 |
| 20260506121028 | 17 | 165 | 1.6 | 8.0 | 0.00 | 0.00 | 0.00 | 75 | 1007.8 |
| 20260506120529 | 17 | 126 | 0.0 | 8.0 | 0.00 | 0.00 | 0.00 | 75 | 1007.9 |
| 20260506120036 | 17 | 0 | 0.0 | 0.0 | 0.00 | 0.00 | 0.00 | 75 | 1008.0 |
| 20260506115528 | 17 | 0 | 0.0 | 11.3 | 0.00 | 0.00 | 0.00 | 75 | 1008.0 |
| 20260506115028 | 17 | 0 | 0.0 | 14.5 | 0.00 | 0.00 | 0.00 | 75 | 1007.8 |
| 20260506114537 | 17 | 171 | 4.8 | 14.5 | 0.00 | 0.00 | 0.00 | 74 | 1007.8 |
| 20260506114028 | 17 | 184 | 1.6 | 11.3 | 0.00 | 0.00 | 0.00 | 74 | 1007.7 |
| 20260506113529 | 17 | 0 | 0.0 | 11.3 | 0.00 | 0.00 | 0.00 | 75 | 1007.7 |
| 20260506113035 | 17 | 163 | 4.8 | 14.5 | 0.00 | 0.00 | 0.00 | 74 | 1007.8 |
| 20260506112529 | 17 | 155 | 3.2 | 14.5 | 0.00 | 0.00 | 0.00 | 75 | 1007.6 |
| 20260506112028 | 17 | 186 | 1.6 | 11.3 | 0.00 | 0.00 | 0.00 | 75 | 1007.6 |
| 20260506111544 | 17 | 0 | 3.2 | 11.3 | 0.00 | 0.00 | 0.00 | 75 | 1007.7 |
| 20260506111030 | 17 | 187 | 1.6 | 11.3 | 0.00 | 0.00 | 0.00 | 75 | 1007.7 |
| 20260506110528 | 17 | 179 | 3.2 | 11.3 | 0.00 | 0.00 | 0.00 | 75 | 1007.8 |
| 20260506110039 | 17 | 156 | 0.0 | 4.8 | 0.00 | 0.00 | 0.00 | 75 | 1007.8 |
| 20260506105526 | 17 | 155 | 0.0 | 4.8 | 0.00 | 0.00 | 0.00 | 74 | 1007.8 |
| 20260506105026 | 17 | 0 | 0.0 | 9.7 | 0.00 | 0.00 | 0.00 | 74 | 1007.9 |
| 20260506104541 | 17 | 0 | 0.0 | 9.7 | 0.00 | 0.00 | 0.00 | 74 | 1007.7 |
| 20260506104026 | 17 | 175 | 1.6 | 9.7 | 0.00 | 0.00 | 0.00 | 74 | 1007.7 |
| 20260506103526 | 17 | 189 | 0.0 | 6.4 | 0.00 | 0.00 | 0.00 | 74 | 1007.6 |
| 20260506103037 | 17 | 0 | 0.0 | 8.0 | 0.00 | 0.00 | 0.00 | 74 | 1007.4 |
| 20260506102531 | 17 | 162 | 1.6 | 8.0 | 0.00 | 0.00 | 0.00 | 74 | 1007.6 |
| 20260506102027 | 17 | 162 | 1.6 | 8.0 | 0.00 | 0.00 | 0.00 | 73 | 1007.6 |
| 20260506101537 | 17 | 0 | 0.0 | 0.0 | 0.00 | 0.00 | 0.00 | 73 | 1007.5 |
| 20260506101026 | 17 | 0 | 0.0 | 0.0 | 0.00 | 0.00 | 0.00 | 73 | 1007.5 |
| 20260506100529 | 17 | 0 | 0.0 | 0.0 | 0.00 | 0.00 | 0.00 | 73 | 1007.3 |
| 20260506100041 | 17 | 0 | 0.0 | 6.4 | 0.00 | 0.00 | 0.00 | 73 | 1007.4 |
| 20260506095526 | 17 | 0 | 0.0 | 9.7 | 0.00 | 0.00 | 0.00 | 73 | 1007.5 |
| 20260506095026 | 17 | 174 | 1.6 | 9.7 | 0.00 | 0.00 | 0.00 | 73 | 1007.5 |
| 20260506094545 | 17 | 0 | 0.0 | 8.0 | 0.00 | 0.00 | 0.00 | 73 | 1007.6 |
| 20260506094026 | 17 | 242 | 0.0 | 4.8 | 0.00 | 0.00 | 0.00 | 73 | 1007.4 |
| 20260506093526 | 17 | 0 | 0.0 | 4.8 | 0.00 | 0.00 | 0.00 | 72 | 1007.4 |
| 20260506093100 | 17 | 0 | 0.0 | 16.1 | 0.00 | 0.00 | 0.00 | 72 | 1007.4 |
| 20260506092526 | 17 | 153 | 1.6 | 16.1 | 0.00 | 0.00 | 0.00 | 72 | 1007.3 |
| 20260506092026 | 17 | 165 | 0.0 | 8.0 | 0.00 | 0.00 | 0.00 | 72 | 1007.2 |
| 20260506091536 | 17 | 0 | 0.0 | 6.4 | 0.00 | 0.00 | 0.00 | 71 | 1007.3 |
| 20260506091026 | 17 | 0 | 1.6 | 6.4 | 0.00 | 0.00 | 0.00 | 71 | 1007.3 |
| 20260506090526 | 17 | 0 | 1.6 | 9.7 | 0.00 | 0.00 | 0.00 | 71 | 1007.4 |
| 20260506090039 | 17 | 165 | 3.2 | 9.7 | 0.00 | 0.00 | 0.00 | 71 | 1007.3 |
| 20260506085526 | 17 | 167 | 1.6 | 9.7 | 0.00 | 0.00 | 0.00 | 71 | 1007.4 |
| 20260506085026 | 17 | 210 | 3.2 | 11.3 | 0.00 | 0.00 | 0.00 | 70 | 1007.4 |
| 20260506084538 | 18 | 0 | 1.6 | 11.3 | 0.00 | 0.00 | 0.00 | 70 | 1007.4 |
| 20260506084026 | 17 | 160 | 0.0 | 6.4 | 0.00 | 0.00 | 0.00 | 70 | 1007.4 |
| 20260506083526 | 17 | 0 | 0.0 | 11.3 | 0.00 | 0.00 | 0.00 | 71 | 1007.6 |
| 20260506083041 | 17 | 180 | 3.2 | 11.3 | 0.00 | 0.00 | 0.00 | 71 | 1007.5 |
| 20260506082529 | 17 | 178 | 3.2 | 9.7 | 0.00 | 0.00 | 0.00 | 71 | 1007.7 |
| 20260506082026 | 17 | 183 | 1.6 | 9.7 | 0.00 | 0.00 | 0.00 | 70 | 1007.7 |
| 20260506081538 | 17 | 0 | 1.6 | 9.7 | 0.00 | 0.00 | 0.00 | 71 | 1007.7 |
| 20260506081026 | 17 | 180 | 3.2 | 12.9 | 0.00 | 0.00 | 0.00 | 71 | 1007.6 |
| 20260506080526 | 17 | 173 | 4.8 | 12.9 | 0.00 | 0.00 | 0.00 | 71 | 1007.5 |
| 20260506080222 | 17 | 156 | 1.6 | 8.0 | 0.00 | 0.00 | 0.00 | 72 | 1007.6 |
| 20260506073528 | 16 | 0 | 0.0 | 3.2 | 0.00 | 0.00 | 0.00 | 76 | 1007.7 |
| 20260506073035 | 16 | 0 | 0.0 | 3.2 | 0.00 | 0.00 | 0.00 | 75 | 1007.6 |
| 20260506072528 | 16 | 173 | 0.0 | 1.6 | 0.00 | 0.00 | 0.00 | 75 | 1007.5 |
| 20260506072028 | 16 | 0 | 0.0 | 1.6 | 0.00 | 0.00 | 0.00 | 76 | 1007.6 |
| 20260506071541 | 16 | 0 | 0.0 | 0.0 | 0.00 | 0.00 | 0.00 | 76 | 1007.6 |
| 20260506071028 | 16 | 0 | 0.0 | 0.0 | 0.00 | 0.00 | 0.00 | 75 | 1007.7 |
| 20260506070530 | 16 | 0 | 0.0 | 1.6 | 0.00 | 0.00 | 0.00 | 74 | 1007.8 |
| 20260506062029 | 17 | 0 | 0.0 | 0.0 | 0.00 | 0.00 | 0.00 | 71 | 1008.0 |
| 20260506061556 | 17 | 0 | 0.0 | 0.0 | 0.00 | 0.00 | 0.00 | 70 | 1008.0 |
| 20260506061027 | 17 | 0 | 0.0 | 0.0 | 0.00 | 0.00 | 0.00 | 69 | 1008.2 |
| 20260506060528 | 17 | 0 | 0.0 | 0.0 | 0.00 | 0.00 | 0.00 | 69 | 1008.1 |
| 20260506051029 | 19 | 0 | 0.0 | 3.2 | 0.00 | 0.00 | 0.00 | 62 | 1008.4 |
| 20260506050528 | 20 | 0 | 0.0 | 3.2 | 0.00 | 0.00 | 0.00 | 62 | 1008.4 |
| 20260506045029 | 20 | 0 | 0.0 | 4.8 | 0.00 | 0.00 | 0.00 | 59 | 1008.4 |
| 20260506044536 | 20 | 296 | 0.0 | 8.0 | 0.00 | 0.00 | 0.00 | 59 | 1008.5 |
| 20260506044028 | 20 | 209 | 1.6 | 9.7 | 0.00 | 0.00 | 0.00 | 58 | 1008.4 |
| 20260506043528 | 20 | 160 | 3.2 | 9.7 | 0.00 | 0.00 | 0.00 | 58 | 1008.3 |
| 20260506043035 | 20 | 180 | 3.2 | 9.7 | 0.00 | 0.00 | 0.00 | 58 | 1008.4 |
| 20260506042530 | 20 | 0 | 0.0 | 8.0 | 0.00 | 0.00 | 0.00 | 58 | 1008.2 |
| 20260506042027 | 20 | 0 | 1.6 | 6.4 | 0.00 | 0.00 | 0.00 | 58 | 1008.2 |
| 20260506041540 | 20 | 0 | 0.0 | 16.1 | 0.00 | 0.00 | 0.00 | 57 | 1008.3 |
| 20260506041028 | 20 | 168 | 1.6 | 16.1 | 0.00 | 0.00 | 0.00 | 57 | 1008.3 |
| 20260506040528 | 20 | 173 | 3.2 | 9.7 | 0.00 | 0.00 | 0.00 | 56 | 1008.3 |
| 20260506040052 | 21 | 153 | 1.6 | 11.3 | 0.00 | 0.00 | 0.00 | 56 | 1008.2 |
| 20260506035529 | 21 | 160 | 3.2 | 12.9 | 0.00 | 0.00 | 0.00 | 55 | 1008.2 |
| 20260506035028 | 21 | 146 | 4.8 | 12.9 | 0.00 | 0.00 | 0.00 | 54 | 1008.2 |
| 20260506034536 | 21 | 169 | 3.2 | 9.7 | 0.00 | 0.00 | 0.00 | 54 | 1008.1 |
| 20260506034030 | 21 | 178 | 1.6 | 8.0 | 0.00 | 0.00 | 0.00 | 53 | 1008.2 |
| 20260506033528 | 21 | 163 | 3.2 | 9.7 | 0.00 | 0.00 | 0.00 | 52 | 1008.2 |
| 20260506033039 | 22 | 163 | 3.2 | 11.3 | 0.00 | 0.00 | 0.00 | 51 | 1008.0 |
| 20260506032528 | 22 | 0 | 3.2 | 11.3 | 0.00 | 0.00 | 0.00 | 50 | 1008.1 |
| 20260506032030 | 22 | 182 | 4.8 | 12.9 | 0.00 | 0.00 | 0.00 | 49 | 1008.0 |
| 20260506031537 | 22 | 184 | 4.8 | 12.9 | 0.00 | 0.00 | 0.00 | 48 | 1008.0 |
| 20260506031027 | 22 | 159 | 4.8 | 12.9 | 0.00 | 0.00 | 0.00 | 47 | 1007.9 |
| 20260506030531 | 22 | 165 | 1.6 | 12.9 | 0.00 | 0.00 | 0.00 | 46 | 1007.9 |
| 20260506030035 | 22 | 208 | 4.8 | 12.9 | 0.00 | 0.00 | 0.00 | 47 | 1007.9 |
| 20260506025531 | 23 | 172 | 3.2 | 11.3 | 0.00 | 0.00 | 0.00 | 46 | 1007.8 |
| 20260506025027 | 23 | 165 | 0.0 | 11.3 | 0.00 | 0.00 | 0.00 | 48 | 1007.8 |
| 20260506024536 | 23 | 183 | 1.6 | 9.7 | 0.00 | 0.00 | 0.00 | 47 | 1007.8 |
| 20260506024028 | 23 | 0 | 1.6 | 9.7 | 0.00 | 0.00 | 0.00 | 46 | 1007.8 |
| 20260506023549 | 23 | 225 | 3.2 | 9.7 | 0.00 | 0.00 | 0.00 | 45 | 1007.8 |
| 20260506023052 | 23 | 197 | 4.8 | 9.7 | 0.00 | 0.00 | 0.00 | 44 | 1007.8 |
| 20260506022528 | 23 | 157 | 1.6 | 8.0 | 0.00 | 0.00 | 0.00 | 45 | 1007.7 |
| 20260506022028 | 23 | 0 | 1.6 | 8.0 | 0.00 | 0.00 | 0.00 | 44 | 1007.8 |
| 20260506021539 | 23 | 130 | 0.0 | 6.4 | 0.00 | 0.00 | 0.00 | 42 | 1007.7 |
| 20260506021027 | 23 | 189 | 1.6 | 6.4 | 0.00 | 0.00 | 0.00 | 44 | 1007.6 |
| 20260506020529 | 23 | 186 | 1.6 | 8.0 | 0.00 | 0.00 | 0.00 | 44 | 1007.6 |
| 20260506020106 | 23 | 186 | 1.6 | 8.0 | 0.00 | 0.00 | 0.00 | 43 | 1007.7 |
| 20260506015529 | 23 | 186 | 1.6 | 11.3 | 0.00 | 0.00 | 0.00 | 41 | 1007.7 |
| 20260506015028 | 23 | 194 | 1.6 | 11.3 | 0.00 | 0.00 | 0.00 | 42 | 1007.6 |
| 20260506014536 | 23 | 190 | 1.6 | 6.4 | 0.00 | 0.00 | 0.00 | 42 | 1007.5 |
| 20260506014027 | 23 | 190 | 1.6 | 4.8 | 0.00 | 0.00 | 0.00 | 41 | 1007.5 |
| 20260506013529 | 23 | 210 | 0.0 | 6.4 | 0.00 | 0.00 | 0.00 | 41 | 1007.5 |
| 20260506013042 | 23 | 211 | 1.6 | 6.4 | 0.00 | 0.00 | 0.00 | 42 | 1007.3 |
| 20260506012527 | 23 | 220 | 1.6 | 4.8 | 0.00 | 0.00 | 0.00 | 41 | 1007.3 |
| 20260506012028 | 23 | 0 | 0.0 | 4.8 | 0.00 | 0.00 | 0.00 | 43 | 1007.3 |
| 20260506011537 | 23 | 232 | 0.0 | 4.8 | 0.00 | 0.00 | 0.00 | 43 | 1007.2 |
| 20260506011027 | 23 | 0 | 1.6 | 6.4 | 0.00 | 0.00 | 0.00 | 42 | 1007.2 |
| 20260506010531 | 23 | 0 | 1.6 | 6.4 | 0.00 | 0.00 | 0.00 | 40 | 1007.2 |
| 20260506010038 | 24 | 245 | 0.0 | 6.4 | 0.00 | 0.00 | 0.00 | 41 | 1007.1 |
| 20260506005529 | 23 | 245 | 1.6 | 6.4 | 0.00 | 0.00 | 0.00 | 39 | 1007.1 |
| 20260506005027 | 24 | 200 | 1.6 | 6.4 | 0.00 | 0.00 | 0.00 | 41 | 1007.1 |
| 20260506004542 | 24 | 184 | 0.0 | 4.8 | 0.00 | 0.00 | 0.00 | 39 | 1007.0 |
| 20260506004032 | 24 | 0 | 1.6 | 4.8 | 0.00 | 0.00 | 0.00 | 39 | 1007.0 |
| 20260506003532 | 24 | 0 | 0.0 | 11.3 | 0.00 | 0.00 | 0.00 | 40 | 1007.0 |
| 20260506003035 | 24 | 194 | 3.2 | 11.3 | 0.00 | 0.00 | 0.00 | 38 | 1007.0 |
| 20260506002527 | 24 | 180 | 1.6 | 8.0 | 0.00 | 0.00 | 0.00 | 38 | 1007.0 |
| 20260506002027 | 24 | 224 | 1.6 | 11.3 | 0.00 | 0.00 | 0.00 | 38 | 1006.8 |
| 20260506001548 | 24 | 0 | 3.2 | 11.3 | 0.00 | 0.00 | 0.00 | 38 | 1006.9 |
| 20260506001027 | 24 | 155 | 4.8 | 11.3 | 0.00 | 0.00 | 0.00 | 37 | 1006.7 |
| 20260506000528 | 25 | 217 | 3.2 | 9.7 | 0.00 | 0.00 | 0.00 | 39 | 1006.7 |
| 20260506000055 | 25 | 179 | 1.6 | 8.0 | 0.00 | 0.00 | 0.00 | 38 | 1006.7 |
| 20260505235528 | 25 | 214 | 3.2 | 8.0 | 0.00 | 0.00 | 0.00 | 38 | 1006.7 |
| 20260505235031 | 25 | 208 | 1.6 | 6.4 | 0.00 | 0.00 | 0.00 | 38 | 1006.6 |
| 20260505234541 | 25 | 213 | 3.2 | 6.4 | 0.00 | 0.00 | 0.00 | 38 | 1006.4 |
| 20260505234028 | 25 | 197 | 1.6 | 4.8 | 0.00 | 0.00 | 0.00 | 39 | 1006.4 |
| 20260505233527 | 25 | 0 | 0.0 | 9.7 | 0.00 | 0.00 | 0.00 | 37 | 1006.4 |
| 20260505233035 | 25 | 197 | 1.6 | 11.3 | 0.00 | 0.00 | 0.00 | 36 | 1006.2 |
| 20260505232529 | 25 | 199 | 3.2 | 12.9 | 0.00 | 0.00 | 0.00 | 37 | 1006.1 |
| 20260505232027 | 25 | 175 | 4.8 | 12.9 | 0.00 | 0.00 | 0.00 | 36 | 1006.1 |
| 20260505231551 | 25 | 189 | 1.6 | 16.1 | 0.00 | 0.00 | 0.00 | 36 | 1006.0 |
| 20260505231031 | 25 | 212 | 4.8 | 16.1 | 0.00 | 0.00 | 0.00 | 36 | 1006.0 |
| 20260505230528 | 26 | 169 | 3.2 | 11.3 | 0.00 | 0.00 | 0.00 | 35 | 1006.0 |
| 20260505230047 | 26 | 252 | 1.6 | 8.0 | 0.00 | 0.00 | 0.00 | 36 | 1005.9 |
| 20260505225527 | 26 | 250 | 1.6 | 6.4 | 0.00 | 0.00 | 0.00 | 36 | 1005.7 |
| 20260505225028 | 26 | 218 | 1.6 | 8.0 | 0.00 | 0.00 | 0.00 | 35 | 1005.6 |
| 20260505224545 | 26 | 218 | 1.6 | 9.7 | 0.00 | 0.00 | 0.00 | 35 | 1005.5 |
| 20260505224028 | 26 | 206 | 3.2 | 11.3 | 0.00 | 0.00 | 0.00 | 35 | 1005.4 |
| 20260505223527 | 26 | 180 | 4.8 | 11.3 | 0.00 | 0.00 | 0.00 | 35 | 1005.4 |
| 20260505223040 | 26 | 191 | 4.8 | 11.3 | 0.00 | 0.00 | 0.00 | 35 | 1005.4 |
| 20260505222527 | 26 | 217 | 3.2 | 11.3 | 0.00 | 0.00 | 0.00 | 36 | 1005.4 |
| 20260505222028 | 26 | 200 | 3.2 | 11.3 | 0.00 | 0.00 | 0.00 | 35 | 1005.3 |
| 20260505221544 | 26 | 168 | 3.2 | 9.7 | 0.00 | 0.00 | 0.00 | 35 | 1005.3 |
| 20260505221027 | 26 | 196 | 3.2 | 9.7 | 0.00 | 0.00 | 0.00 | 35 | 1005.2 |
| 20260505220528 | 26 | 212 | 3.2 | 17.7 | 0.00 | 0.00 | 0.00 | 34 | 1005.1 |
| 20260505220036 | 27 | 175 | 6.4 | 17.7 | 0.00 | 0.00 | 0.00 | 34 | 1005.2 |
| 20260505215530 | 27 | 281 | 4.8 | 11.3 | 0.00 | 0.00 | 0.00 | 34 | 1005.1 |
| 20260505215027 | 27 | 202 | 4.8 | 16.1 | 0.00 | 0.00 | 0.00 | 34 | 1005.1 |
| 20260505214546 | 27 | 196 | 3.2 | 16.1 | 0.00 | 0.00 | 0.00 | 34 | 1005.0 |
| 20260505214029 | 27 | 211 | 4.8 | 22.5 | 0.00 | 0.00 | 0.00 | 35 | 1004.9 |
| 20260505213527 | 27 | 201 | 6.4 | 22.5 | 0.00 | 0.00 | 0.00 | 33 | 1004.9 |
| 20260505213040 | 27 | 165 | 6.4 | 16.1 | 0.00 | 0.00 | 0.00 | 34 | 1005.0 |
| 20260505212529 | 27 | 198 | 4.8 | 11.3 | 0.00 | 0.00 | 0.00 | 34 | 1005.0 |
| 20260505212028 | 27 | 208 | 4.8 | 17.7 | 0.00 | 0.00 | 0.00 | 34 | 1005.0 |
| 20260505211607 | 27 | 202 | 4.8 | 17.7 | 0.00 | 0.00 | 0.00 | 32 | 1004.8 |
| 20260505211027 | 28 | 224 | 6.4 | 25.7 | 0.00 | 0.00 | 0.00 | 31 | 1004.9 |
| 20260505210527 | 28 | 174 | 9.7 | 25.7 | 0.00 | 0.00 | 0.00 | 32 | 1004.8 |
| 20260505210045 | 28 | 316 | 4.8 | 12.9 | 0.00 | 0.00 | 0.00 | 35 | 1004.8 |
| 20260505205531 | 28 | 198 | 4.8 | 14.5 | 0.00 | 0.00 | 0.00 | 34 | 1004.9 |
| 20260505205028 | 28 | 189 | 3.2 | 22.5 | 0.00 | 0.00 | 0.00 | 32 | 1004.8 |
| 20260505204546 | 28 | 252 | 4.8 | 22.5 | 0.00 | 0.00 | 0.00 | 33 | 1004.6 |
| 20260505204027 | 28 | 202 | 8.0 | 25.7 | 0.00 | 0.00 | 0.00 | 32 | 1004.9 |
| 20260505203527 | 28 | 156 | 6.4 | 25.7 | 0.00 | 0.00 | 0.00 | 33 | 1004.8 |
| 20260505203040 | 28 | 311 | 8.0 | 17.7 | 0.00 | 0.00 | 0.00 | 33 | 1004.8 |
| 20260505202527 | 28 | 199 | 6.4 | 16.1 | 0.00 | 0.00 | 0.00 | 33 | 1005.0 |
| 20260505202033 | 28 | 197 | 6.4 | 16.1 | 0.00 | 0.00 | 0.00 | 34 | 1005.0 |
| 20260505201540 | 28 | 186 | 8.0 | 19.3 | 0.00 | 0.00 | 0.00 | 35 | 1004.9 |
| 20260505201027 | 28 | 187 | 6.4 | 19.3 | 0.00 | 0.00 | 0.00 | 34 | 1005.1 |
| 20260505200528 | 28 | 225 | 6.4 | 24.1 | 0.00 | 0.00 | 0.00 | 35 | 1005.2 |
| 20260505200039 | 28 | 186 | 6.4 | 24.1 | 0.00 | 0.00 | 0.00 | 33 | 1005.2 |
| 20260505195527 | 28 | 222 | 6.4 | 19.3 | 0.00 | 0.00 | 0.00 | 34 | 1005.3 |
| 20260505195026 | 28 | 166 | 8.0 | 22.5 | 0.00 | 0.00 | 0.00 | 33 | 1005.1 |
| 20260505194538 | 28 | 208 | 6.4 | 22.5 | 0.00 | 0.00 | 0.00 | 34 | 1005.2 |
| 20260505194035 | 28 | 217 | 6.4 | 22.5 | 0.00 | 0.00 | 0.00 | 34 | 1005.3 |
| 20260505193529 | 28 | 174 | 6.4 | 22.5 | 0.00 | 0.00 | 0.00 | 34 | 1005.2 |
| 20260505193035 | 28 | 209 | 4.8 | 12.9 | 0.00 | 0.00 | 0.00 | 35 | 1005.4 |
| 20260505192531 | 28 | 198 | 4.8 | 12.9 | 0.00 | 0.00 | 0.00 | 34 | 1005.4 |
| 20260505192027 | 28 | 186 | 3.2 | 16.1 | 0.00 | 0.00 | 0.00 | 34 | 1005.6 |
| 20260505191541 | 28 | 205 | 6.4 | 16.1 | 0.00 | 0.00 | 0.00 | 35 | 1005.7 |
| 20260505191028 | 28 | 238 | 6.4 | 20.9 | 0.00 | 0.00 | 0.00 | 33 | 1005.5 |
| 20260505190530 | 28 | 203 | 9.7 | 20.9 | 0.00 | 0.00 | 0.00 | 32 | 1005.6 |
| 20260505190040 | 28 | 200 | 8.0 | 20.9 | 0.00 | 0.00 | 0.00 | 36 | 1005.7 |
| 20260505185527 | 28 | 204 | 6.4 | 20.9 | 0.00 | 0.00 | 0.00 | 36 | 1005.4 |
| 20260505185027 | 28 | 181 | 8.0 | 24.1 | 0.00 | 0.00 | 0.00 | 36 | 1005.6 |
| 20260505184542 | 28 | 138 | 11.3 | 24.1 | 0.00 | 0.00 | 0.00 | 35 | 1005.9 |
| 20260505184027 | 28 | 185 | 6.4 | 22.5 | 0.00 | 0.00 | 0.00 | 36 | 1005.9 |
| 20260505183531 | 28 | 188 | 8.0 | 22.5 | 0.00 | 0.00 | 0.00 | 34 | 1006.0 |
| 20260505183043 | 28 | 234 | 8.0 | 24.1 | 0.00 | 0.00 | 0.00 | 35 | 1006.2 |
| 20260505182527 | 28 | 133 | 9.7 | 24.1 | 0.00 | 0.00 | 0.00 | 35 | 1006.1 |
| 20260505182028 | 28 | 178 | 6.4 | 24.1 | 0.00 | 0.00 | 0.00 | 35 | 1006.4 |
| 20260505181544 | 28 | 240 | 8.0 | 27.4 | 0.00 | 0.00 | 0.00 | 38 | 1006.4 |
| 20260505181031 | 28 | 221 | 9.7 | 27.4 | 0.00 | 0.00 | 0.00 | 37 | 1006.3 |
| 20260505180528 | 27 | 173 | 6.4 | 22.5 | 0.00 | 0.00 | 0.00 | 37 | 1006.4 |
| 20260505180100 | 27 | 194 | 6.4 | 22.5 | 0.00 | 0.00 | 0.00 | 39 | 1006.3 |
| 20260505175528 | 27 | 312 | 6.4 | 20.9 | 0.00 | 0.00 | 0.00 | 40 | 1006.6 |
| 20260505175027 | 27 | 209 | 9.7 | 20.9 | 0.00 | 0.00 | 0.00 | 37 | 1006.5 |
| 20260505174540 | 27 | 186 | 9.7 | 24.1 | 0.00 | 0.00 | 0.00 | 40 | 1006.6 |
| 20260505174027 | 27 | 205 | 8.0 | 24.1 | 0.00 | 0.00 | 0.00 | 40 | 1006.7 |
| 20260505173526 | 27 | 204 | 8.0 | 19.3 | 0.00 | 0.00 | 0.00 | 41 | 1006.7 |
| 20260505173037 | 27 | 190 | 4.8 | 22.5 | 0.00 | 0.00 | 0.00 | 41 | 1006.5 |
| 20260505172529 | 27 | 182 | 4.8 | 22.5 | 0.00 | 0.00 | 0.00 | 40 | 1006.7 |
| 20260505172026 | 27 | 196 | 6.4 | 24.1 | 0.00 | 0.00 | 0.00 | 40 | 1006.6 |